GFSCGP_con_3kmhel_102.txt.gz
Helicity
150 225 229 215 170 149 151 129 80 122 107 86 80 60 89 71 -23 63 5 85 100 234 376 489 533 465 407 303 271 257 231 169 119 60 55 30 51 27 58 133 156 215 245 173
165 123 149 125 113 114 128 111 40 75 69 66 42 22 58 25 1 69 124 61 109 253 371 500 508 463 334 280 220 268 208 187 109 76 45 61 84 65 3 282 188 308 344 201
106 118 97 121 99 106 98 93 85 77 61 92 122 58 45 -44 -17 45 86 58 60 119 320 497 458 428 285 273 182 265 206 176 115 86 85 57 90 70 -14 125 439 405 270 225
79 49 59 85 106 130 67 60 91 96 108 135 116 53 70 16 48 -13 60 -16 34 178 257 400 430 357 265 236 163 250 209 180 119 89 82 45 70 112 -53 -47 350 379 344 352
185 84 89 61 78 114 114 48 89 87 113 139 148 159 11 14 64 77 16 -22 27 177 357 413 351 335 252 225 137 189 191 174 129 58 67 66 85 70 31 78 190 249 353 315
103 156 130 141 108 71 92 118 109 124 163 163 171 173 47 36 11 82 149 42 -10 64 255 391 361 324 266 192 157 178 150 168 128 52 32 56 89 115 74 142 188 309 366 447
82 -4 14 81 100 69 87 139 203 238 256 165 142 153 85 -8 61 95 200 112 59 28 341 395 345 292 263 206 143 160 124 145 109 79 37 57 65 80 136 184 176 219 383 430
125 106 55 103 93 107 55 125 227 242 235 171 117 123 56 14 -8 48 101 148 -63 222 262 323 315 276 215 170 109 143 115 135 75 74 61 73 87 85 109 160 196 257 365 427
112 94 83 96 164 134 23 122 123 182 200 180 141 134 67 56 90 223 132 160 87 159 187 251 319 198 169 143 93 155 124 119 82 70 57 73 97 112 126 128 146 227 320 418
85 130 65 78 74 86 81 88 172 219 221 169 145 78 77 60 94 264 326 173 5 10 134 175 199 178 122 123 105 132 121 128 111 67 82 86 104 120 131 156 180 180 273 415
144 79 63 59 82 80 169 84 119 166 214 134 134 73 -9 76 64 172 149 190 348 65 -5 -9 128 158 149 119 128 142 121 128 117 84 71 78 91 119 146 157 147 139 168 97
263 168 79 52 81 113 122 184 162 184 241 185 76 37 52 17 -10 -18 41 178 228 172 243 -13 -33 94 172 142 113 133 127 120 111 127 103 93 72 75 82 97 116 145 129 80
382 274 146 71 85 156 274 252 187 175 180 119 108 71 86 176 192 138 81 67 47 151 100 141 89 25 43 157 127 116 137 148 130 126 128 127 114 106 72 40 46 84 81 104
99 280 322 157 66 66 207 250 242 177 155 80 75 67 84 15 -1 44 161 -6 -33 160 20 46 100 103 -16 -8 45 153 141 181 194 157 150 139 142 140 116 73 47 27 48 55
-58 261 351 192 152 70 73 177 192 140 126 156 178 29 38 7 -25 -1 95 173 1 -8 14 59 89 188 47 -20 15 -5 98 174 175 174 178 167 162 148 137 128 98 69 47 28
16 66 43 97 101 85 53 65 69 89 53 231 242 248 165 100 150 4 48 51 85 58 -29 79 50 78 125 53 36 75 106 75 174 183 186 184 192 225 176 163 151 127 98 84
23 16 13 62 97 21 49 30 -5 30 -4 -11 79 68 28 123 150 85 109 101 98 122 12 -28 76 81 81 138 122 85 92 143 143 124 185 198 194 206 216 190 171 154 156 139
6 30 17 20 27 -29 32 62 26 41 106 141 185 157 114 128 118 126 116 73 25 51 12 4 -27 27 67 88 151 142 128 122 156 181 202 191 206 211 190 176 169 150 172 261
23 28 -7 -28 -9 32 52 108 154 98 127 125 162 212 208 21 52 120 94 1 8 22 8 -28 -41 -97 -62 9 83 152 157 102 155 216 283 260 241 208 224 193 184 338 391 426
79 101 84 52 -32 -36 66 170 207 174 99 81 66 78 118 115 93 53 11 -41 -36 -42 1 30 -28 -83 -118 -79 -25 4 78 153 321 295 198 258 249 244 244 354 448 479 481 523
111 146 111 100 43 66 51 167 157 107 67 65 45 20 -9 -18 -22 -24 -57 -64 -63 -39 -10 -3 -10 -48 -54 -36 -68 -55 21 69 167 287 386 476 478 495 498 554 520 607 632 688
51 119 127 86 49 59 73 70 95 96 84 77 45 -2 13 3 19 -17 -25 -30 -15 14 46 57 32 -10 -60 -36 -39 -56 -20 67 94 174 361 487 525 540 565 636 667 689 773 778
115 93 157 72 -11 32 77 70 60 213 79 76 78 44 26 12 -4 -0 -1 -3 -34 -9 -8 9 -18 -16 -42 -49 5 8 40 112 157 217 291 440 545 594 674 762 821 849 796 834
95 58 85 76 48 80 81 85 53 72 75 90 89 67 36 1 13 5 3 -5 -20 -13 -32 -2 -35 -53 -71 -26 35 83 108 136 216 324 386 440 544 671 757 832 854 928 981 1058
34 40 -6 20 40 57 85 108 101 124 129 134 127 84 26 20 19 6 16 18 18 40 9 -8 -16 -31 -76 -25 37 117 152 186 286 352 416 523 654 801 925 944 926 1002 984 1078
50 50 9 35 86 48 64 174 143 128 102 79 38 39 52 13 -1 -9 8 16 26 26 -1 -8 12 -12 -28 -21 58 130 139 159 232 303 338 453 539 638 741 869 903 782 748 896

GFSCGP_con_3kmhel_105.txt.gz
Helicity
181 231 262 237 222 186 166 147 131 153 111 94 70 7 0 18 57 62 91 37 35 -8 51 300 354 385 441 403 351 338 289 226 269 243 163 108 82 61 52 62 68 57 130 194
198 132 185 175 160 159 157 119 98 92 103 106 51 -15 2 -3 54 88 36 30 19 55 118 227 341 380 389 408 316 317 279 248 221 227 166 128 100 73 65 108 95 178 182 222
167 191 74 167 154 146 146 125 134 83 83 82 105 14 14 31 82 72 36 28 24 78 168 190 273 360 439 411 324 278 264 219 205 222 181 116 111 105 116 99 149 305 427 239
104 70 116 108 109 179 105 138 108 107 116 113 93 54 16 34 46 56 35 23 21 75 135 155 218 329 390 400 279 253 267 185 204 213 177 86 92 135 162 124 255 266 240 219
137 120 83 106 98 124 116 90 106 122 183 195 129 131 -43 57 63 44 89 126 19 28 133 185 261 358 386 319 258 236 272 145 204 176 137 79 74 82 125 130 318 313 230 301
129 204 161 107 85 125 134 115 162 190 198 142 122 173 -36 62 48 40 52 115 136 49 73 114 215 334 389 249 222 237 252 121 169 145 93 70 69 85 91 128 283 404 310 283
168 112 168 160 173 179 207 230 251 237 272 157 44 131 117 70 21 27 59 94 151 48 79 105 231 345 327 249 213 222 194 114 139 125 87 55 68 61 61 118 109 274 271 239
160 122 125 189 101 182 200 222 278 266 245 179 144 129 105 29 43 7 162 172 151 151 144 163 227 315 290 260 200 210 145 111 118 115 100 64 58 61 65 99 88 156 185 293
93 153 146 121 110 196 95 200 98 143 125 131 114 143 122 86 42 120 203 367 356 80 24 72 165 189 238 209 190 212 122 102 103 125 127 77 56 61 82 107 148 185 247 338
142 144 145 114 114 126 180 139 154 191 151 120 132 128 103 72 65 88 149 315 344 243 107 31 126 86 91 129 188 172 107 86 107 126 129 107 71 59 72 110 157 196 283 392
187 121 143 120 146 150 153 129 119 135 159 143 140 133 103 48 60 88 191 226 296 332 57 10 67 78 36 54 112 129 111 94 111 124 120 124 98 78 86 89 107 138 207 214
226 168 144 124 68 57 62 100 125 194 223 190 157 124 161 107 99 108 81 102 348 226 235 116 54 91 43 29 56 64 64 95 116 129 129 113 115 97 82 87 102 132 181 151
175 135 142 140 124 90 122 147 130 175 160 142 170 159 184 231 306 162 15 49 128 205 250 80 42 49 -4 40 47 32 35 56 86 128 128 128 129 121 95 92 103 121 123 131
54 95 231 188 206 87 191 233 259 203 225 198 153 131 100 98 41 17 -19 9 36 137 398 136 84 60 52 -6 12 42 41 19 48 70 75 99 138 136 107 96 120 118 114 135
2 77 281 552 367 132 84 338 261 260 194 188 228 180 114 104 11 56 -67 33 19 138 295 183 115 108 105 110 22 38 62 79 87 69 66 58 76 94 120 133 131 132 132 126
-64 -25 83 446 156 177 79 -9 248 254 209 143 461 250 256 144 162 149 82 59 3 78 137 93 56 12 100 161 27 66 47 76 105 104 106 105 95 98 87 93 119 135 137 134
-56 -107 -53 90 132 78 42 4 15 26 87 89 42 210 211 241 203 136 78 29 43 8 -17 3 -22 27 65 83 181 -10 34 -5 108 121 123 139 148 133 132 123 104 96 113 129
1 -36 -104 -91 34 325 39 48 20 63 20 7 24 43 100 127 151 130 119 56 25 11 -12 44 37 7 17 72 81 110 123 34 43 118 152 183 221 176 157 166 151 128 117 133
21 6 -20 -50 5 56 4 65 105 36 42 96 107 138 133 118 166 199 149 101 25 -1 19 43 56 70 80 45 68 59 34 42 45 104 180 196 195 217 152 157 179 203 241 252
45 54 26 13 -1 9 42 114 89 58 53 45 44 28 -1 29 56 33 24 44 56 41 29 39 39 3 9 41 40 45 47 74 108 149 195 128 165 202 203 180 271 329 344 367
-3 67 5 41 48 78 56 64 119 42 32 57 26 23 15 45 14 56 71 74 72 68 89 85 55 57 74 84 71 76 88 102 150 133 113 186 221 215 323 417 351 379 418 457
-13 -2 80 111 71 26 64 105 109 128 98 61 77 58 49 41 55 38 23 37 63 69 87 86 58 33 29 47 62 90 92 92 136 176 196 229 340 415 449 476 525 482 513 549
-1 62 60 85 44 -3 50 73 98 139 75 95 82 54 31 12 12 7 20 37 47 40 41 37 24 43 25 25 36 43 54 66 105 148 227 271 344 452 484 520 517 576 595 542
63 50 53 73 59 28 75 80 58 97 154 155 116 76 46 11 7 10 10 14 19 27 38 39 30 41 44 8 20 21 25 66 107 184 244 261 316 438 571 627 623 686 697 726
153 41 63 71 73 140 125 163 104 112 108 99 114 77 32 -8 -2 -15 -16 -9 -9 -14 -9 -32 -38 -20 12 0 -5 8 1 43 133 193 243 320 392 449 547 645 673 767 775 760
19 185 19 23 49 87 103 241 145 168 126 86 61 68 52 11 -13 -16 -24 -24 -20 -7 -4 -13 -29 -36 -23 -15 1 22 27 13 145 217 250 282 309 366 461 567 670 593 555 673

GFSCGP_con_3kmhel_108.txt.gz
Helicity
159 221 216 260 263 182 151 145 100 118 83 109 79 25 27 25 35 53 48 54 27 24 15 33 39 136 258 254 367 417 393 333 329 263 284 210 199 166 127 95 89 229 149 166
202 155 163 151 176 164 169 120 91 96 94 81 64 -3 5 -10 32 41 40 46 53 46 41 82 35 129 169 197 351 425 378 318 283 217 273 233 228 160 134 81 117 184 106 102
188 211 51 147 183 158 141 146 162 116 91 63 69 -23 -7 35 84 86 81 70 81 53 52 112 119 154 198 263 347 426 339 254 248 229 308 233 219 195 154 120 142 167 162 242
167 107 164 157 115 165 124 167 173 127 120 92 58 -34 -97 -10 44 76 78 62 82 64 59 94 133 182 214 276 411 406 287 192 200 224 306 236 216 155 151 159 133 165 261 242
190 195 165 132 136 152 118 98 109 140 146 132 148 121 -77 35 90 87 105 97 89 88 100 74 132 181 252 359 381 323 245 168 193 190 255 183 141 107 133 157 135 200 337 234
123 148 136 118 101 144 162 156 114 139 167 157 144 145 -11 -10 6 75 50 97 116 94 85 123 124 188 225 281 311 295 214 169 187 176 218 141 107 95 142 134 155 231 351 330
145 147 225 170 115 146 206 222 226 215 244 219 9 168 103 91 52 51 12 51 90 163 192 128 154 179 212 238 295 254 193 202 173 175 156 115 85 92 161 141 126 277 230 256
147 187 131 225 179 162 164 162 263 223 201 162 152 105 88 -13 72 62 32 -4 67 180 218 247 174 167 124 142 263 214 194 197 160 173 82 102 91 96 127 133 118 228 216 258
112 173 62 111 226 252 178 175 180 228 185 155 149 179 189 104 100 113 111 43 27 144 177 226 299 178 71 103 206 127 129 138 123 144 73 102 107 104 111 117 120 144 210 254
117 138 72 93 140 154 211 226 232 224 173 159 130 127 115 73 63 127 116 64 25 67 195 181 182 246 95 147 173 120 101 79 70 64 26 80 101 113 124 147 110 125 148 112
132 112 103 121 150 117 174 189 212 154 148 148 127 70 102 101 116 134 128 103 86 43 107 203 83 163 169 192 144 123 98 78 75 53 48 28 60 80 106 124 132 127 139 182
205 176 98 65 109 93 148 170 139 265 206 179 122 104 104 85 152 121 128 80 82 64 150 136 92 109 193 159 129 90 96 75 70 68 70 58 49 70 72 91 113 125 107 116
251 253 145 114 144 167 143 139 138 120 165 148 130 99 165 152 177 146 119 40 97 137 109 226 241 105 116 135 100 69 63 71 70 82 81 79 72 64 55 74 85 95 111 119
14 215 275 193 187 184 195 197 199 116 175 152 140 98 76 89 123 53 51 40 41 68 121 375 237 178 180 143 109 65 75 61 90 97 84 90 85 75 73 75 92 74 88 93
-5 37 117 214 322 199 170 223 360 184 195 167 185 208 206 81 63 69 78 86 54 57 100 256 485 161 157 257 197 93 75 64 86 101 105 117 129 93 86 77 81 101 91 78
-19 6 -8 159 456 366 176 115 221 284 252 209 219 292 270 199 182 152 123 82 35 -23 8 73 150 117 279 205 254 237 149 70 59 74 94 117 130 127 112 123 105 96 95 104
-12 -44 -44 -9 120 509 235 88 2 182 167 164 179 171 254 258 205 140 108 89 45 60 -1 -30 -37 -0 143 230 198 182 164 89 41 91 111 112 134 142 150 150 130 123 120 118
-5 -10 -47 -20 -28 318 180 23 -38 28 38 33 180 220 206 197 210 205 173 119 80 54 14 18 35 6 -42 3 67 80 29 44 50 60 111 70 101 136 178 175 149 144 147 154
-17 -20 -17 2 15 18 29 32 26 20 24 29 67 154 184 229 150 133 116 131 101 83 53 30 29 7 12 18 40 50 51 74 82 50 92 -35 109 96 119 136 158 161 181 201
19 15 6 21 6 17 26 65 48 16 39 40 118 110 114 13 40 20 50 68 91 85 77 68 56 51 64 78 100 72 85 113 135 110 105 48 47 110 168 224 172 205 230 267
48 27 13 17 35 36 24 71 71 34 10 36 32 -15 -81 11 25 51 66 84 74 69 87 70 64 60 53 51 58 63 84 116 134 144 127 99 82 96 169 216 312 343 304 353
60 52 28 49 49 15 61 68 62 23 56 110 78 10 46 64 89 84 67 62 66 70 67 74 51 40 30 34 38 35 54 90 93 101 138 166 183 197 268 321 419 466 481 436
-22 -19 23 12 37 28 55 59 113 88 33 95 105 88 78 59 47 41 43 46 48 47 45 41 32 39 36 30 17 39 51 43 61 95 123 170 199 234 301 361 389 464 484 519
11 -25 -1 29 28 67 56 72 75 78 189 216 169 110 73 48 36 33 31 31 29 37 38 23 1 14 31 24 24 13 13 26 36 72 121 154 207 266 327 359 434 471 486 509
-17 133 73 17 46 83 67 121 88 116 177 236 172 124 62 48 39 26 21 26 21 16 24 23 21 8 11 17 26 37 39 37 33 53 91 137 188 219 261 329 359 413 484 435
-20 196 96 41 80 66 85 145 117 167 196 83 77 105 97 57 29 20 22 19 17 19 20 11 15 20 33 33 33 41 40 48 63 84 100 132 183 218 260 295 361 387 353 370

GFSCGP_con_3kmhel_111.txt.gz
Helicity
69 147 187 193 170 125 116 89 79 101 118 92 72 51 57 50 48 47 55 51 51 33 38 44 51 41 35 62 110 157 243 311 366 381 290 241 193 196 156 118 131 108 151 191
196 152 131 122 122 137 106 80 62 75 79 94 61 56 51 38 40 49 58 52 40 34 41 53 36 33 48 49 82 152 220 320 327 290 253 230 193 202 173 100 100 91 98 94
198 153 54 123 131 119 100 96 81 73 54 56 79 26 37 25 16 39 48 25 43 75 96 96 63 63 89 61 100 156 248 330 326 237 245 265 200 217 236 121 78 91 95 139
127 58 181 135 78 102 93 94 55 52 73 86 75 23 60 132 62 73 73 129 138 133 122 93 79 71 102 103 103 165 254 317 293 255 225 220 181 210 213 116 105 101 128 157
168 111 59 156 206 152 112 53 38 21 47 102 82 119 31 19 34 97 120 148 168 142 126 120 85 66 93 100 152 176 216 258 251 204 228 204 160 184 164 124 124 159 148 188
91 131 141 68 115 138 131 108 87 88 80 136 99 126 -2 -1 14 91 135 140 109 136 138 152 130 45 88 100 140 160 266 225 184 165 193 150 126 129 134 113 148 173 199 200
69 38 104 153 135 125 126 140 164 163 214 150 96 124 132 75 16 57 62 71 77 90 134 151 124 79 108 105 64 127 198 194 129 126 126 113 87 68 76 77 119 192 186 261
97 129 82 126 118 185 144 173 234 208 187 112 109 74 133 7 78 103 103 73 80 98 66 80 110 34 76 109 83 108 148 160 128 112 110 92 63 53 37 69 109 165 202 292
83 80 57 46 164 166 215 161 138 165 166 119 107 94 85 110 174 122 139 153 119 85 71 62 56 44 45 91 121 140 152 136 111 101 120 87 60 45 46 79 89 141 196 254
130 80 48 69 53 105 136 120 199 174 206 188 136 133 110 86 151 115 137 133 103 47 61 46 76 65 77 96 147 140 145 109 90 95 113 71 66 34 43 54 69 128 157 271
230 140 85 37 56 19 108 188 195 139 185 157 143 124 122 124 74 138 132 115 95 69 39 53 80 108 129 99 157 148 200 112 82 76 93 85 68 34 36 55 66 68 138 168
99 83 38 32 58 79 65 57 199 196 167 170 145 123 103 13 34 76 68 47 51 74 54 88 87 125 130 139 145 173 208 99 69 74 60 73 61 43 33 42 32 44 73 135
157 51 44 43 59 83 158 195 92 59 136 111 135 114 143 104 89 47 20 29 49 90 114 175 197 154 200 113 161 145 110 91 69 56 55 76 47 33 30 29 38 24 28 62
68 42 177 134 163 125 71 95 196 121 102 70 127 113 79 101 140 112 78 86 58 77 108 234 282 292 230 203 206 220 119 105 64 50 53 61 40 20 35 45 44 35 24 24
-18 104 90 449 276 135 131 144 140 143 91 73 37 65 80 70 76 65 61 63 82 97 124 101 241 237 389 269 222 222 195 112 76 60 52 63 55 31 37 53 55 58 43 22
-4 3 -31 75 341 209 128 146 147 165 151 156 114 131 158 127 143 123 136 130 157 119 83 91 36 -19 112 221 174 320 221 197 127 73 62 51 52 47 40 46 55 67 64 69
-8 -15 10 1 14 186 236 148 95 136 200 226 115 108 132 166 191 198 186 174 139 104 58 31 23 -32 13 50 230 210 298 242 190 83 82 71 52 43 48 51 58 60 65 78
19 -12 -26 -12 17 61 127 35 52 82 254 163 102 94 118 194 269 283 242 142 116 88 37 17 36 28 -13 -6 41 67 76 155 255 250 178 97 88 104 56 39 58 62 65 101
-10 -19 -28 -27 0 27 36 84 51 65 25 28 56 84 136 184 217 288 205 133 87 69 51 24 5 -2 -6 19 18 -11 15 113 122 239 184 150 114 67 99 83 65 74 111 114
-19 -10 -6 -18 -25 32 16 43 21 -2 66 7 68 100 173 162 139 128 66 18 70 94 62 49 31 32 38 57 48 38 26 30 35 162 168 109 119 117 47 62 109 153 173 167
52 25 9 -15 -33 -4 14 79 33 61 70 31 88 108 108 38 0 17 22 39 41 54 66 65 64 51 65 70 49 33 55 60 79 2 64 114 95 95 168 95 111 206 314 358
48 43 0 5 -3 5 110 87 37 26 15 11 31 -54 -36 0 12 37 32 50 53 56 63 60 45 51 43 39 38 37 56 72 57 55 47 63 83 78 70 146 247 345 419 434
34 -5 -23 11 25 46 68 113 74 52 16 42 5 19 40 48 29 31 32 41 43 51 45 40 38 39 46 36 24 28 52 64 53 35 40 60 103 157 166 208 292 371 414 484
28 3 57 4 49 29 85 50 33 73 85 124 103 82 66 61 45 49 42 40 39 39 40 33 28 37 36 36 23 17 1 11 27 26 42 67 98 144 212 251 314 343 351 384
61 110 95 20 31 41 157 137 42 106 146 161 225 179 110 63 39 28 30 35 28 27 27 26 29 26 32 25 26 35 41 21 10 30 47 55 92 132 188 256 274 284 319 282
15 38 29 64 46 29 103 159 133 169 172 134 275 210 111 70 50 35 31 30 32 38 39 28 18 17 14 18 29 37 32 18 16 32 56 80 108 145 180 213 290 379 335 330

GFSCGP_con_3kmhel_114.txt.gz
Helicity
110 79 124 104 66 37 57 62 44 67 66 105 67 66 78 65 50 63 64 58 58 61 48 46 69 60 55 54 34 51 98 129 262 344 370 271 230 228 202 168 165 158 132 137
139 97 62 97 87 50 36 49 45 69 64 55 64 69 56 61 62 55 54 50 42 39 48 55 63 55 67 51 37 47 77 139 231 274 248 215 245 211 196 198 182 152 127 137
129 32 101 48 86 89 74 61 63 60 87 33 36 62 56 29 27 45 38 27 41 72 86 101 88 69 55 63 48 51 70 127 163 183 216 191 185 200 206 183 169 141 141 122
133 98 121 122 72 86 81 66 59 51 34 60 30 50 71 76 86 52 56 84 94 126 109 85 79 82 63 77 85 82 82 107 124 170 180 187 169 163 176 144 117 105 76 97
46 129 127 161 61 68 55 71 65 38 58 70 73 83 57 93 42 38 94 125 94 77 80 87 84 68 88 97 128 95 101 95 141 148 154 146 108 144 160 114 90 77 93 84
64 58 100 89 166 77 85 99 82 85 99 103 72 103 99 83 75 52 60 74 100 115 101 82 87 75 116 109 120 98 67 118 174 176 170 122 111 147 152 111 90 92 131 130
38 38 36 47 61 89 75 120 170 164 209 137 78 97 92 98 70 92 82 81 101 89 77 89 102 84 73 100 93 106 77 157 181 192 168 94 98 130 94 87 71 114 164 178
0 42 17 33 36 69 78 96 210 190 188 140 102 122 122 26 66 107 52 81 88 65 66 79 83 74 91 80 65 88 111 125 149 176 123 73 94 88 66 58 83 86 111 122
151 5 -21 9 -18 9 60 103 57 95 79 168 112 78 80 93 67 94 79 86 74 70 60 37 24 58 97 75 55 64 111 95 132 142 94 83 91 59 53 58 77 92 94 153
150 -4 3 32 13 -8 9 27 76 90 162 119 122 78 91 64 111 71 79 89 76 48 31 28 27 33 57 60 48 53 90 120 134 135 91 86 86 52 59 59 77 91 112 147
145 78 21 10 4 -9 40 78 46 42 89 135 141 105 56 37 7 44 79 86 80 58 31 20 28 42 51 42 54 63 106 165 147 147 101 88 61 51 65 55 70 70 117 164
55 -15 43 30 50 113 4 -1 26 102 75 118 80 91 122 76 17 53 101 120 99 68 46 40 50 55 105 61 57 80 143 191 175 115 103 85 56 50 70 65 61 75 114 156
11 83 147 20 36 80 130 18 24 14 39 53 103 102 138 45 82 70 60 65 52 50 48 62 70 69 94 185 114 101 147 176 142 109 99 77 50 45 54 51 50 55 75 116
-12 70 134 75 141 58 13 137 122 42 51 69 70 61 82 44 50 77 63 28 56 72 87 90 85 65 54 130 182 303 213 122 134 125 100 79 36 34 53 48 46 42 48 80
-23 66 95 155 356 215 38 -25 -15 97 6 45 51 51 59 48 57 74 58 63 63 87 93 101 75 69 116 92 140 196 302 310 147 92 112 79 43 31 42 35 40 33 37 50
36 4 11 173 249 220 79 50 13 -36 0 9 46 36 48 63 82 67 64 75 89 111 109 96 80 82 73 169 173 202 238 348 232 229 128 76 65 40 41 25 29 26 20 30
7 -13 10 -12 134 188 79 142 74 33 49 77 24 67 68 72 80 96 109 155 159 131 111 93 82 69 71 80 84 185 277 299 323 261 144 107 71 57 47 39 34 20 18 19
19 22 4 11 89 94 84 153 102 84 70 82 90 90 119 214 290 359 295 172 148 140 120 79 69 58 40 28 78 75 -36 140 119 266 256 231 167 71 55 48 42 28 21 27
-35 21 8 2 3 27 12 146 130 149 70 161 111 68 101 127 163 232 211 196 173 138 99 54 38 36 41 43 44 54 35 168 144 200 258 171 138 155 157 71 58 41 34 52
-22 6 20 6 4 50 20 86 76 52 11 54 20 50 57 33 101 181 227 178 113 87 65 44 34 34 40 63 51 54 36 -1 115 132 135 99 85 90 62 91 30 52 38 38
76 50 26 10 -23 5 -6 43 52 110 74 62 55 161 133 85 135 117 109 42 53 59 59 53 47 48 64 66 65 59 52 35 37 59 77 77 120 83 87 73 51 110 203 245
43 44 16 28 -2 -2 60 40 70 69 77 35 61 18 -15 26 22 16 26 44 65 65 60 62 46 43 50 62 63 69 78 68 30 35 74 97 74 110 102 125 199 274 298 340
51 28 17 17 36 28 23 75 76 71 23 98 12 -41 3 8 30 32 28 29 42 53 49 45 40 34 33 37 45 60 67 52 57 46 35 56 90 73 135 151 191 263 287 291
52 43 -5 54 24 54 49 103 66 37 99 78 75 55 37 42 25 25 30 35 34 43 45 40 33 34 35 31 30 37 53 40 34 48 62 61 57 99 139 184 222 218 234 301
55 59 53 116 45 31 117 130 97 55 104 124 144 126 92 76 61 38 36 36 33 30 33 29 24 19 22 23 38 42 42 41 37 31 37 50 48 74 136 225 238 250 309 278
-34 -18 13 62 50 34 46 110 90 76 133 214 185 181 178 119 75 49 41 32 37 40 36 30 33 26 25 17 20 36 33 32 30 41 56 69 66 86 110 153 246 372 321 353

GFSCGP_con_3kmhel_117.txt.gz
Helicity
76 87 138 81 40 20 34 59 74 68 35 8 18 34 44 12 17 29 39 42 38 40 41 31 27 26 35 74 99 79 95 115 189 146 188 286 252 247 207 163 166 174 185 102
87 104 76 41 43 43 32 42 29 16 39 65 38 29 38 65 58 35 33 35 45 43 30 28 26 39 72 107 80 70 78 82 144 191 242 210 187 167 145 144 166 164 194 159
66 84 103 144 120 77 69 78 34 35 25 29 23 34 35 21 23 16 23 28 36 31 29 23 28 42 117 83 87 68 88 84 161 251 178 136 164 248 217 195 176 186 187 200
111 61 115 100 113 82 133 48 37 64 83 89 19 42 21 -5 -19 6 14 28 30 27 25 53 92 108 82 84 78 74 91 74 203 192 111 139 165 203 153 146 133 179 192 192
58 79 119 64 128 64 77 35 43 31 37 79 72 57 47 17 41 20 13 23 24 91 121 90 65 64 47 70 89 78 99 91 174 115 105 137 128 128 135 117 154 154 171 138
44 40 53 52 57 28 87 76 31 54 62 89 44 79 51 30 21 18 99 118 166 122 90 79 72 100 64 200 130 110 119 123 168 103 93 104 125 145 165 131 141 162 150 118
39 32 36 -13 20 30 35 66 198 150 165 133 47 58 71 37 48 53 52 72 63 64 84 92 103 95 83 99 110 109 105 140 154 113 88 115 129 144 142 127 131 156 173 191
24 55 48 87 189 42 41 47 131 194 214 106 34 74 35 22 45 46 118 114 81 78 74 89 97 81 79 92 71 74 80 133 156 121 122 138 150 141 120 112 126 129 128 122
42 -27 196 173 31 69 16 62 20 51 42 58 32 53 28 29 28 138 72 91 78 90 109 98 48 68 76 87 87 88 94 123 139 119 127 135 133 104 83 89 106 114 146 124
117 176 94 42 66 37 12 41 46 77 88 82 53 34 53 15 56 112 60 71 99 89 89 80 70 61 53 39 51 66 99 121 97 94 120 107 89 82 89 102 136 121 129 126
-12 -11 160 7 -1 16 45 31 39 45 67 65 71 46 30 24 70 93 59 91 113 100 65 59 52 44 59 46 33 52 91 115 102 135 132 122 90 75 89 104 105 95 119 116
-29 17 221 254 70 82 128 -15 9 95 43 58 45 37 79 80 94 56 171 103 88 84 83 60 29 28 47 91 69 42 69 120 117 178 185 155 108 95 92 101 92 106 113 133
-15 40 117 184 -27 98 74 61 16 30 33 50 52 43 53 50 83 144 70 115 68 91 68 56 56 47 58 76 92 161 109 99 134 147 138 129 111 95 83 88 101 96 112 139
-46 59 137 159 37 41 207 10 31 40 33 32 30 31 27 53 45 46 88 78 74 91 94 88 60 46 64 107 100 121 174 246 142 118 133 101 106 91 78 87 73 82 90 117
-13 105 88 104 137 70 95 -11 -83 75 67 77 41 26 56 44 81 134 84 56 113 122 111 82 68 53 49 84 128 104 140 185 266 283 107 89 89 73 75 108 63 65 69 81
0 9 41 164 56 75 94 -42 -41 43 -39 66 69 126 78 69 68 146 142 137 185 145 107 104 91 66 54 77 66 122 140 158 169 252 321 113 82 71 102 99 69 67 53 59
-11 -4 25 129 114 153 6 90 35 1 33 12 97 63 89 35 194 90 107 145 186 126 137 115 98 87 72 50 46 54 99 161 139 196 228 332 120 82 134 101 57 55 48 39
29 1 26 107 219 57 39 118 73 70 14 14 -22 66 99 116 183 215 257 228 241 181 162 128 97 76 81 56 36 36 54 83 140 253 159 247 268 245 182 95 71 47 51 52
-11 -14 0 6 117 25 -1 176 139 105 73 47 50 28 82 122 166 398 321 228 155 157 120 97 73 75 73 72 48 42 46 84 110 153 407 201 291 271 255 194 78 66 45 48
8 4 -6 22 72 81 -6 135 146 180 25 173 98 69 52 34 133 209 207 193 178 170 128 92 65 64 70 83 72 60 60 71 113 64 173 218 198 213 201 185 180 131 52 60
56 40 17 20 -2 3 -14 14 126 79 15 64 54 123 99 133 125 204 194 221 190 146 109 62 64 65 71 74 67 59 64 70 83 126 -2 55 83 136 145 138 133 148 124 206
42 60 38 33 1 7 -41 -31 4 45 94 -14 -15 55 143 80 54 173 230 212 122 67 72 70 46 51 57 68 68 58 74 65 63 87 114 66 95 27 66 76 98 140 128 252
43 20 23 24 39 -41 -32 -3 39 8 33 28 72 -3 14 91 52 27 11 17 53 56 56 54 42 32 32 50 64 64 69 81 67 64 88 119 49 83 85 106 127 126 188 262
58 53 18 29 13 -131 -11 44 72 13 18 63 151 22 29 17 16 29 22 39 40 31 43 44 46 43 34 36 43 55 54 62 78 91 109 118 140 89 136 133 124 148 171 202
50 51 41 86 45 73 37 18 70 32 35 50 137 103 42 48 60 43 39 40 33 47 39 38 36 34 34 26 28 44 55 52 51 69 79 95 113 156 192 225 250 249 288 222
16 -22 2 123 53 63 39 21 67 53 29 46 67 124 120 98 80 69 65 48 47 46 51 49 42 33 29 24 22 38 50 57 40 49 68 86 89 114 151 204 267 344 280 299

GFSCGP_con_3kmhel_120.txt.gz
Helicity
116 94 113 33 38 48 73 67 44 21 56 33 41 75 32 34 26 61 31 53 80 52 50 72 61 66 93 93 121 209 234 309 341 292 294 271 201 178 224 223 194 167 174 191
54 57 25 45 75 70 83 97 30 18 78 51 72 55 24 57 50 57 34 33 74 45 41 63 92 90 87 80 125 227 243 267 309 293 308 297 246 228 204 170 170 182 158 189
50 47 81 126 190 194 130 144 69 65 40 63 41 76 43 37 23 32 48 42 73 59 79 78 89 79 97 119 167 213 213 181 226 257 337 349 318 181 131 140 170 194 141 220
101 124 140 151 129 119 180 113 106 50 35 71 57 27 48 31 16 13 35 83 35 76 52 96 75 63 88 164 270 268 167 170 204 324 389 332 273 259 236 247 200 178 177 175
101 113 156 127 52 39 59 31 78 66 70 50 41 102 40 17 -4 -20 -5 84 62 35 55 77 69 62 144 150 201 193 160 153 278 337 352 240 179 195 223 158 155 159 195 185
128 53 -31 30 100 122 71 107 100 95 97 171 95 89 46 46 -1 -6 20 79 51 83 197 214 185 142 145 177 247 307 228 140 308 291 230 147 106 196 148 125 178 190 190 191
96 -2 28 51 144 84 54 83 161 274 288 301 124 114 80 -8 -6 -19 37 205 196 207 195 164 81 93 103 169 246 317 260 160 236 188 119 90 132 137 103 155 180 216 200 177
129 -23 30 8 44 32 27 37 96 204 207 182 82 64 32 32 72 27 95 198 164 146 188 181 206 207 193 226 139 95 104 165 251 166 116 121 125 115 176 182 159 228 190 195
40 -76 30 38 -23 -29 22 64 56 35 27 64 31 7 -8 -37 2 5 150 139 76 80 172 189 150 161 170 194 174 81 78 153 198 214 193 163 159 137 191 209 199 176 166 212
24 -53 -7 14 36 24 25 17 51 58 99 206 115 51 8 19 -0 42 192 165 201 243 218 205 131 142 121 92 88 87 96 99 106 130 173 207 192 177 194 157 132 140 206 241
35 83 145 69 101 35 -53 -91 -35 29 63 93 122 66 -21 48 44 126 216 224 258 118 126 98 99 92 97 100 115 85 103 114 103 118 131 159 171 136 136 137 118 164 200 178
59 -95 44 190 224 75 48 56 94 37 12 54 43 23 1 42 47 144 101 160 304 254 208 88 106 94 91 87 88 112 138 127 109 136 145 184 157 146 134 124 94 132 145 128
-7 -14 30 113 -12 162 156 139 185 145 4 29 98 -61 25 16 215 73 297 265 273 266 201 107 97 72 67 73 91 102 148 182 204 154 145 216 215 203 138 96 109 171 143 127
-43 16 -2 29 68 147 227 107 151 62 56 33 32 77 27 19 60 110 364 392 204 177 118 76 83 63 38 46 75 108 147 158 176 207 165 140 146 140 111 88 107 114 109 120
-8 5 48 48 60 141 29 33 61 -82 42 7 63 47 32 56 107 84 154 103 121 246 218 117 75 47 33 23 29 74 117 142 142 181 231 211 130 115 87 90 83 95 97 98
49 35 23 122 94 26 14 -26 14 -58 88 -19 106 85 42 70 -86 56 174 135 383 363 194 138 123 73 42 31 26 39 65 109 119 128 195 200 212 152 122 98 85 75 77 105
73 -5 2 155 89 176 13 61 33 1 29 87 85 17 58 -5 -20 88 181 385 364 303 174 107 101 83 54 27 25 32 43 71 55 116 166 207 269 311 323 162 77 67 62 86
4 22 -7 88 194 109 7 57 150 33 -7 254 294 164 -53 12 75 49 140 250 153 122 82 96 97 84 77 49 42 3 28 55 75 102 142 217 215 305 248 230 163 63 71 87
-57 1 4 -2 58 54 -34 69 71 81 19 62 190 180 38 16 117 232 150 202 207 154 100 106 88 88 81 85 46 50 33 43 66 94 162 152 271 237 279 243 185 150 99 102
82 5 4 16 24 31 7 75 205 32 9 98 101 84 100 69 101 261 234 202 209 223 151 137 87 86 101 117 79 56 55 58 82 95 92 143 109 279 226 263 206 157 139 108
-2 12 31 24 13 -3 60 -36 21 6 73 27 32 101 70 195 270 296 221 190 181 166 165 88 87 100 99 104 95 75 60 62 58 64 76 113 170 212 203 246 221 115 141 172
-1 13 -23 11 35 7 -90 -105 -97 17 -4 -1 108 -42 54 111 57 121 157 145 167 171 163 120 66 75 64 69 77 71 74 59 65 60 69 88 106 56 135 149 138 205 214 247
23 -7 26 26 -14 -107 -101 -85 -11 1 -26 -14 90 69 66 63 56 102 110 127 166 116 75 74 64 56 52 48 48 53 60 53 69 78 86 108 120 115 96 227 138 164 206 283
23 33 9 24 -22 -114 -33 -0 26 28 34 39 100 54 90 25 23 37 40 61 41 44 56 54 59 53 42 39 34 41 58 38 61 69 88 116 147 168 158 133 208 82 225 165
4 1 17 7 28 2 27 46 59 39 53 83 56 99 104 55 58 33 32 30 38 40 41 47 45 35 39 36 35 41 53 38 43 56 65 92 92 119 176 214 184 270 185 104
30 -2 -13 27 21 -2 37 65 56 39 53 62 74 59 109 69 56 34 10 14 18 28 29 32 34 39 46 44 44 50 45 33 22 34 57 86 99 112 110 131 203 208 214 228

GFSCGP_con_3kmhel_123.txt.gz
Helicity
76 132 116 97 111 107 124 156 137 111 67 84 84 55 27 38 -20 68 84 46 72 69 58 64 67 125 154 180 284 361 427 405 553 467 424 320 233 230 261 232 180 176 200 205
102 91 82 106 93 160 146 170 135 129 94 79 95 73 89 81 -16 51 -8 35 75 52 88 59 75 157 147 182 187 302 374 430 432 444 370 318 300 268 278 277 156 163 200 209
77 55 157 165 109 117 143 162 163 195 122 128 151 91 50 85 47 23 -52 27 64 49 56 47 75 75 157 161 170 221 292 330 353 398 422 439 414 351 329 235 193 182 177 183
125 90 131 125 135 168 284 148 163 150 167 203 167 160 79 72 63 25 -1 38 50 55 43 52 53 98 92 121 134 208 256 275 295 377 418 405 387 372 335 276 231 194 163 158
165 186 181 126 181 90 200 112 93 68 51 186 211 161 -71 99 47 27 43 99 58 42 47 41 76 119 117 112 142 227 269 260 307 369 377 402 396 349 310 253 192 165 173 169
185 162 111 120 62 86 59 66 63 52 51 83 167 181 -86 37 37 31 86 -33 -27 39 76 76 68 171 236 192 242 282 263 293 288 327 353 360 340 310 259 254 214 210 171 173
79 142 35 18 33 47 105 126 97 106 112 92 79 125 26 80 73 53 42 24 72 123 162 308 345 328 415 451 441 405 397 306 293 299 334 337 299 276 256 216 190 205 220 191
168 102 96 34 46 79 -27 116 148 174 170 20 88 53 -12 35 -157 -2 10 71 283 498 469 500 461 507 492 412 379 390 409 406 328 247 240 241 214 206 186 166 213 201 172 157
141 152 -15 64 -70 74 80 59 16 122 77 -3 14 39 102 -15 30 69 44 183 177 275 483 528 558 491 427 311 266 295 282 247 269 248 180 157 128 105 163 174 227 193 156 151
131 94 31 18 -45 55 48 50 47 139 57 33 -39 23 32 -14 81 150 47 253 401 443 374 458 432 375 411 315 232 143 130 154 218 256 257 203 140 164 226 231 253 184 193 222
98 130 40 -47 12 43 76 3 87 17 39 -5 -6 -98 -87 -3 61 141 134 376 508 571 388 254 275 214 237 213 196 187 197 186 193 188 189 194 193 197 222 186 198 220 240 239
113 91 52 184 124 -4 82 -0 167 118 -17 -29 -8 -177 -48 34 34 55 240 448 547 427 328 394 242 219 190 147 138 145 150 176 224 199 174 163 158 170 188 171 178 196 205 184
85 24 -6 26 -12 39 47 261 127 9 21 4 -28 -115 61 -37 14 51 411 473 444 393 281 294 166 141 113 102 104 108 134 164 196 215 174 174 122 170 186 180 155 158 170 151
88 71 62 10 98 106 158 296 90 -15 -29 -0 -61 -118 24 13 -47 -70 316 535 294 333 348 178 164 147 104 85 86 108 132 173 182 199 219 232 234 192 191 155 148 158 143 133
61 44 9 46 114 103 94 -12 -85 41 52 -13 -25 -44 -47 -42 -46 -0 80 33 106 184 107 221 62 133 116 88 72 79 118 177 185 159 179 221 208 224 196 146 123 116 107 111
50 12 6 122 126 88 55 2 37 135 129 68 -17 -15 29 -121 -27 -8 22 -94 195 222 284 197 120 87 69 58 46 41 68 116 149 189 166 167 183 201 208 165 124 112 103 109
132 104 23 113 129 128 14 7 18 -9 207 169 83 110 -19 -106 -79 -26 -15 81 96 119 217 186 155 107 25 -7 -17 3 26 44 108 153 210 207 165 172 226 260 207 134 114 94
170 126 50 90 36 3 6 13 73 22 -43 140 447 274 24 -120 -105 -23 -23 -17 53 -34 46 81 97 120 121 32 -33 -31 4 38 61 94 176 213 233 195 200 231 278 292 128 91
21 -4 -4 -34 9 38 52 109 166 78 -4 26 165 295 226 92 84 82 180 195 131 90 62 77 81 95 149 107 27 13 22 43 67 76 89 113 211 232 212 234 201 249 218 132
-39 -31 -46 -40 -30 10 34 141 123 94 47 88 118 154 120 75 96 141 173 184 240 116 70 98 98 112 172 160 53 45 42 57 77 73 58 72 77 169 231 237 177 203 144 243
-1 4 -35 -48 -41 8 61 28 -15 -29 63 109 82 20 58 259 241 320 360 269 217 222 114 86 98 99 133 120 62 64 39 60 61 53 52 43 51 65 138 211 208 282 289 235
-14 -4 -15 -17 -38 -11 -58 -134 -117 -42 -18 4 46 78 26 38 88 115 110 132 185 187 172 85 64 87 89 95 62 70 50 40 40 48 58 63 56 46 50 142 188 224 307 305
15 -62 -20 -5 -17 -112 -113 -98 -46 -13 -28 15 52 12 26 37 66 64 83 43 24 63 96 79 55 51 54 58 60 68 58 32 31 41 60 83 88 84 89 89 212 198 291 148
39 22 -30 -42 -68 -79 -35 -41 -14 6 19 43 62 55 37 20 16 32 29 17 24 34 53 56 44 41 34 39 51 49 45 25 33 43 58 72 96 108 129 135 137 230 285 229
17 23 -16 -39 -6 -25 -29 -26 16 25 20 50 57 64 33 -4 51 30 9 -1 12 22 27 30 29 34 43 44 62 67 50 21 24 35 47 68 81 97 94 131 152 126 265 233
54 11 -27 -65 -7 -31 -20 -16 -8 27 20 16 31 43 45 14 11 33 -6 -18 8 22 29 29 29 28 31 42 68 79 60 34 15 15 28 41 56 79 92 103 150 254 200 255

GFSCGP_con_3kmhel_126.txt.gz
Helicity
97 119 117 115 92 105 107 105 76 33 22 25 68 88 92 100 113 86 78 57 68 8 57 79 135 76 135 205 284 298 302 322 451 448 432 351 294 298 288 301 276 249 236 225
119 80 79 103 131 124 121 131 103 71 95 142 94 93 90 84 59 62 90 41 39 19 43 64 25 58 58 137 252 281 322 357 408 488 440 402 374 301 285 316 294 268 226 231
58 38 94 95 82 90 77 123 178 176 105 85 81 54 29 4 44 -7 -4 36 5 43 10 83 23 81 61 88 131 204 276 381 464 499 557 523 459 392 313 253 248 248 228 216
37 107 102 76 85 93 168 132 155 118 116 166 89 164 96 51 7 -34 -19 -3 50 61 -37 28 28 86 71 99 166 165 300 367 444 548 483 451 396 351 243 284 310 269 262 206
73 113 85 87 123 167 152 57 73 109 133 117 130 238 75 81 37 -36 -52 -14 85 59 -49 -19 44 48 50 76 126 192 256 311 377 403 383 404 334 313 348 345 319 227 264 211
94 93 101 141 180 89 19 80 90 121 200 295 362 195 92 123 -19 -53 -25 28 3 26 25 39 74 -15 27 78 133 221 212 237 318 338 329 327 349 364 384 323 262 237 264 232
50 64 13 43 165 35 96 65 89 98 128 344 173 50 137 79 -10 8 40 26 29 44 66 38 185 177 26 45 281 345 363 440 350 335 309 274 332 350 297 276 209 239 254 235
82 109 75 123 78 124 65 92 157 232 156 201 142 3 2 18 -32 -44 59 63 -24 11 68 290 429 416 447 432 444 469 461 407 366 347 302 318 341 294 297 272 217 213 206 218
92 189 88 84 56 89 135 93 72 136 144 334 325 32 11 -28 7 1 -17 -15 56 292 455 497 564 605 656 616 577 490 471 438 374 242 237 270 303 303 264 208 212 198 208 237
105 144 115 75 48 42 92 39 24 65 81 194 -23 5 61 92 94 32 79 40 62 224 430 485 490 509 486 527 521 496 443 392 354 339 263 220 209 193 203 222 187 177 189 164
131 186 142 74 160 46 66 48 102 72 125 -44 -66 4 -38 43 -9 -26 1 25 198 75 288 306 340 307 270 274 293 281 327 322 340 340 305 293 236 220 206 216 189 196 200 183
85 147 146 131 98 -58 -13 -13 31 129 -26 -26 -80 -38 7 -31 -128 -94 119 223 274 312 306 357 342 293 313 282 301 240 228 251 232 204 222 234 223 221 231 269 209 194 178 156
116 130 129 75 10 38 89 155 81 24 69 6 -47 -43 -78 -95 -165 -93 -17 461 230 279 315 316 260 280 315 255 228 229 224 223 239 225 193 195 212 164 144 203 215 212 166 150
119 120 162 166 191 116 201 160 66 91 53 8 -21 -20 -89 -130 -116 -39 -128 54 223 195 237 301 295 356 309 225 192 183 178 186 197 227 245 234 251 242 163 211 178 141 145 151
103 96 80 76 125 90 90 4 38 -27 141 27 117 -19 -6 -45 -71 -60 -57 -66 125 160 214 340 274 219 250 203 159 171 179 168 178 195 228 256 236 269 215 180 131 163 132 116
85 62 37 32 92 38 52 -12 -8 -6 -33 180 108 -9 43 -2 -39 -16 -15 -2 24 101 433 389 438 187 120 132 120 86 77 123 134 149 174 203 231 187 251 229 179 141 141 139
83 75 27 -51 48 113 -36 -18 -20 -28 -42 -4 59 117 306 -24 27 1 -73 -44 -18 -28 56 159 149 123 87 71 61 73 53 37 65 108 151 171 208 207 218 176 220 140 125 157
71 100 48 41 56 13 -21 -18 -48 -33 -37 71 147 240 296 212 290 319 164 16 -12 -12 37 46 63 72 21 2 14 23 44 58 66 72 86 153 187 187 205 215 242 261 197 104
25 38 -5 49 10 11 18 148 68 -8 14 76 153 288 266 145 265 250 233 204 122 53 -12 17 37 88 31 24 10 27 53 60 73 90 84 89 89 159 171 165 255 235 205 233
25 40 40 27 -3 19 25 219 69 -40 -11 40 125 74 97 235 134 100 161 137 129 65 50 63 82 74 65 46 26 25 46 65 73 76 82 75 80 88 111 170 180 188 170 179
57 42 51 25 -19 -2 17 73 27 -48 -11 60 53 42 -7 -32 -6 40 70 93 89 103 85 68 55 42 46 66 41 43 55 65 64 59 61 80 78 78 83 81 124 165 145 131
35 39 39 26 15 12 -2 -42 -49 -47 -38 -35 12 -2 -13 1 23 73 89 83 110 113 92 48 9 30 60 73 65 67 61 59 50 51 58 78 95 82 77 62 95 117 172 213
58 42 19 -19 -16 -26 -48 -65 -59 -48 -27 -6 7 14 2 -4 6 37 81 100 75 84 20 25 19 33 55 76 74 64 46 38 42 48 62 73 92 102 91 82 109 117 163 156
88 57 34 23 -29 -49 -34 -50 -34 -27 -1 9 11 15 8 -0 18 33 40 51 33 14 29 31 35 41 49 64 73 54 33 15 22 35 52 65 77 101 120 115 121 138 162 199
79 77 32 18 24 10 -10 -33 -36 -28 -2 19 30 24 1 -10 -15 3 48 53 28 21 27 26 27 28 40 50 50 43 27 8 20 22 26 44 61 83 92 127 155 144 154 113
90 76 67 23 25 -10 16 -17 -38 -15 6 5 29 32 20 -3 5 -3 3 14 9 7 18 22 31 48 51 42 54 50 40 29 25 20 17 26 25 41 57 73 123 247 196 194

GFSCGP_con_3kmhel_129.txt.gz
Helicity
84 152 125 104 96 63 59 81 75 70 81 64 53 73 63 16 3 2 26 -6 -10 5 -24 22 75 84 56 160 185 204 241 267 368 383 359 308 287 247 222 221 233 236 202 203
101 102 107 75 74 74 94 96 82 49 37 20 29 47 75 51 -18 -24 -71 14 -24 -40 -51 -6 44 39 60 98 152 190 267 314 388 417 395 378 351 278 275 238 218 223 231 225
54 132 86 51 43 55 66 58 63 99 68 76 83 160 116 121 109 121 124 87 52 -46 -45 -1 30 74 65 78 165 154 148 297 372 423 450 506 496 429 321 228 222 234 259 246
72 69 68 51 26 59 58 51 126 127 115 218 182 252 119 173 88 80 86 65 74 11 -33 2 46 91 54 -1 76 135 177 291 342 432 512 482 463 420 339 296 294 274 271 242
71 69 50 22 17 89 53 103 129 106 141 132 125 106 302 258 196 175 101 76 136 127 21 19 77 96 37 22 -41 110 149 234 310 390 423 458 396 437 451 367 293 289 258 217
46 10 26 -12 32 75 101 138 129 122 73 156 103 79 244 90 123 28 74 124 142 136 85 93 96 89 73 91 -43 95 84 159 300 357 378 376 428 469 412 314 301 281 275 250
40 50 32 6 64 72 153 185 135 133 100 172 115 83 128 54 138 15 192 236 242 151 116 90 93 52 141 167 -24 -70 146 180 214 295 340 336 335 373 363 315 293 289 306 262
93 110 51 52 76 129 139 93 104 165 135 145 32 86 127 -22 -34 16 62 90 -29 53 8 10 64 182 236 279 313 51 171 274 219 195 214 250 302 330 290 280 272 245 246 233
91 52 61 27 86 193 93 119 64 143 166 107 143 130 122 -52 -120 -73 -8 -9 -54 -18 30 35 165 345 446 544 558 211 187 346 316 316 290 310 269 264 264 258 238 221 223 226
57 83 36 52 67 76 87 43 34 78 94 123 193 69 27 -64 -77 -86 -9 118 121 87 117 248 343 516 708 789 674 535 536 487 409 312 250 249 240 254 263 275 251 244 229 209
64 95 77 78 132 182 76 80 61 120 170 196 168 201 -25 -104 -165 -134 -7 227 136 3 59 231 284 402 485 527 559 583 539 526 524 442 339 246 185 211 220 220 236 224 198 226
70 88 98 96 125 14 83 76 55 109 142 275 258 300 -46 -118 -146 -122 -89 -44 103 75 137 164 296 233 278 347 285 317 344 338 362 337 334 331 280 215 213 200 192 214 184 208
81 114 108 94 133 21 100 98 56 52 43 56 -24 46 -56 -72 -29 -126 -113 -128 4 133 267 347 384 304 146 263 262 240 266 278 278 279 298 335 325 231 173 175 188 197 197 200
103 123 156 167 148 119 119 89 86 26 -4 -19 -19 16 -7 -9 47 -65 -85 -17 15 132 311 284 380 430 423 266 367 320 330 294 248 228 243 276 317 338 249 137 158 144 156 184
128 106 129 88 85 78 76 43 -6 -4 11 -68 42 45 1 84 33 -46 -114 -82 -45 22 195 611 419 373 377 234 347 331 295 275 229 189 208 252 290 284 322 304 166 152 181 190
125 113 97 45 47 33 32 27 -22 -50 -13 -48 47 46 131 84 114 35 1 14 -47 4 74 230 459 433 274 225 230 239 204 199 173 173 171 191 225 243 301 266 238 147 153 104
114 108 118 59 41 34 63 -26 -4 -29 -8 -48 -44 60 174 176 198 187 69 55 4 -15 26 157 226 283 195 121 115 132 133 107 91 112 133 149 152 159 188 186 170 195 203 116
94 122 100 28 23 51 22 -40 5 -16 -42 14 7 117 111 55 172 167 123 49 29 -48 -78 11 23 26 27 40 32 47 64 54 67 83 85 103 132 146 163 167 194 144 177 260
56 75 79 49 26 13 51 9 -3 -13 -44 13 -4 25 87 21 -13 0 54 43 23 13 -11 -31 15 40 20 31 12 15 34 55 71 86 85 78 87 105 118 147 167 174 196 186
70 42 78 55 45 -9 9 46 3 -32 -39 -13 32 9 8 42 -1 26 37 22 19 45 38 30 40 26 16 54 54 45 46 46 65 78 83 81 76 80 99 118 126 138 139 166
135 100 87 62 54 29 25 61 2 -30 -13 -18 15 2 -24 -23 4 0 8 16 19 66 96 14 43 51 36 50 49 49 58 77 75 64 63 73 86 78 95 109 71 96 126 85
110 128 112 99 95 22 20 -2 -29 -3 -7 -3 -4 -1 -20 -12 5 17 18 46 60 52 39 -10 37 43 30 45 41 48 54 50 49 55 63 77 89 82 83 83 94 77 77 88
100 82 83 78 65 36 4 -8 -23 -11 -2 -3 0 -7 -4 -7 0 12 21 45 61 42 -5 15 13 20 45 64 55 60 64 46 48 57 64 78 82 100 101 94 106 92 95 89
98 87 90 88 54 56 34 3 -6 -18 -17 -4 4 10 3 0 -4 10 16 16 22 17 17 31 36 40 52 70 62 53 50 38 35 46 51 51 63 82 101 98 116 130 114 98
87 115 96 98 87 95 41 22 -3 -10 -16 -12 1 14 10 1 -3 -4 11 17 16 10 18 19 29 33 37 42 53 53 49 37 21 22 25 35 43 53 59 93 125 138 148 106
112 105 150 86 74 72 51 39 8 0 -6 -4 12 12 14 5 7 1 -1 6 3 20 18 20 27 37 46 40 46 56 53 37 34 26 17 23 26 32 34 17 57 196 194 201

GFSCGP_con_3kmhel_135.txt.gz
Helicity
147 152 168 147 123 96 90 70 47 30 -0 13 22 63 4 -65 -105 -83 -9 18 17 41 43 86 139 135 8 98 142 153 141 156 207 242 244 269 254 275 172 171 166 124 170 196
181 168 118 135 134 118 93 75 48 9 24 52 12 57 41 -172 -20 57 51 45 35 45 22 29 50 108 134 31 100 174 161 153 167 211 227 228 266 240 233 186 169 134 136 201
160 143 145 134 132 134 87 53 44 31 33 7 -2 12 15 -36 111 71 10 39 38 56 52 59 97 90 71 43 69 110 159 143 142 201 176 151 151 177 177 179 178 150 141 157
164 145 149 137 124 89 70 26 34 17 45 46 70 20 4 90 150 30 65 65 63 45 -46 23 35 38 132 70 33 79 119 137 153 179 159 114 217 246 173 223 203 173 185 168
170 132 130 139 100 62 31 41 9 27 29 71 -5 27 42 43 69 63 64 56 -26 -70 -103 39 91 -1 88 17 22 67 107 147 130 176 228 215 195 191 219 232 193 185 206 190
168 120 133 128 90 57 62 40 32 76 77 19 38 102 39 41 68 62 11 -75 -93 56 1 -20 62 101 72 31 88 69 122 123 141 149 217 202 178 158 215 198 221 268 282 254
165 146 142 129 102 63 67 27 30 34 33 73 82 118 31 32 66 19 -76 -54 -54 32 -50 12 -7 93 155 42 55 109 124 158 144 113 148 212 198 169 188 257 262 283 336 333
138 119 133 113 73 55 40 19 48 59 47 79 49 116 37 67 46 -33 -53 -78 -77 -6 -42 26 42 134 216 236 6 73 193 135 77 87 92 116 187 236 213 251 257 280 287 320
133 155 139 93 58 36 56 57 55 57 38 93 74 88 21 6 -32 -66 -33 -92 -150 -33 -4 40 45 249 252 246 256 245 143 80 115 108 102 91 113 148 193 209 186 233 274 286
144 166 120 101 54 44 46 57 74 72 90 104 119 90 87 25 -76 -2 -16 -87 -112 -59 40 52 102 362 482 348 328 427 391 306 277 191 92 61 53 160 212 243 233 154 170 206
97 118 128 92 63 48 77 85 100 83 137 138 125 129 119 -10 -51 12 -13 -37 -132 -113 12 46 133 366 570 577 511 494 592 425 419 418 331 152 198 217 223 220 202 186 218 218
81 92 94 65 77 69 83 108 111 139 174 114 125 122 123 -22 -13 7 -25 -74 -26 -22 10 100 130 440 719 730 696 622 640 500 495 451 494 451 419 219 209 216 200 199 256 260
56 95 108 106 121 112 97 129 143 119 136 125 155 85 25 5 32 -13 -58 -55 -47 -34 -12 103 236 174 869 812 676 632 624 522 520 439 586 479 579 374 301 219 134 186 176 231
81 74 70 78 105 120 101 113 137 155 180 148 102 25 16 3 19 19 -12 -29 -42 -48 -55 40 156 171 562 661 722 705 686 504 490 325 349 633 484 278 185 218 169 122 154 161
85 65 66 42 33 75 62 40 121 143 99 129 106 47 44 -1 -20 -3 -56 -23 -33 -64 -63 14 124 162 397 559 666 672 636 572 400 327 247 336 244 188 118 179 171 226 136 103
95 73 69 72 45 39 50 57 95 69 49 54 66 35 62 -22 -29 13 -1 -36 -17 -20 -43 -13 87 168 164 332 452 320 317 356 280 290 272 239 253 281 236 260 248 218 220 126
83 85 78 85 79 66 59 82 100 76 42 75 71 48 18 17 2 -5 -8 -20 -26 -15 -2 -21 38 158 153 191 184 131 178 169 194 204 231 258 277 281 277 286 256 254 276 282
87 90 81 82 71 86 101 102 64 59 51 75 52 36 -1 -10 -18 19 8 -33 9 3 20 20 2 40 90 89 70 54 69 90 101 134 166 200 214 175 187 165 227 242 255 268
100 101 102 87 93 108 99 83 67 81 75 84 46 36 -8 -3 -19 11 8 -1 9 12 10 17 4 16 23 26 26 29 53 60 83 133 164 179 173 167 150 199 184 213 128 160
101 124 105 100 94 87 95 81 41 28 77 45 28 22 6 -14 -19 6 18 21 12 15 25 28 29 34 21 14 27 51 59 51 75 103 119 129 137 152 159 167 177 174 148 142
143 110 74 82 97 94 99 90 64 86 98 42 34 27 12 -20 -7 4 -5 -11 -20 -3 18 11 22 50 50 23 29 51 88 118 92 79 83 92 116 133 154 140 147 144 144 153
117 107 110 136 126 112 108 86 88 78 48 29 19 16 23 20 20 9 -4 -13 -19 -12 1 18 18 29 22 26 42 52 93 98 73 69 87 91 93 98 118 143 163 167 141 126
117 130 130 100 125 137 75 63 55 61 50 35 29 25 22 27 5 18 14 -5 -21 -23 -12 1 15 17 6 25 43 60 80 69 55 52 77 88 83 92 106 130 175 188 195 166
128 130 125 135 134 115 65 72 55 33 41 31 26 24 17 19 3 -1 7 3 -9 -6 3 8 15 17 7 14 34 49 56 52 40 39 42 47 61 74 104 127 142 167 197 191
128 112 129 129 99 93 78 68 63 52 49 44 28 16 16 -1 -1 -9 -4 13 9 -6 -5 17 19 14 24 24 24 44 63 56 44 38 39 51 51 48 42 60 103 131 175 163
89 103 143 112 102 127 127 71 72 70 68 57 28 4 -1 -11 -4 -4 -8 1 5 3 -1 -2 29 23 22 20 22 35 57 62 49 40 37 38 36 31 29 31 28 80 125 183

GFSCGP_con_3kmhel_138.txt.gz
Helicity
112 95 112 175 156 171 153 102 80 68 80 47 33 25 7 -2 31 67 47 39 35 30 29 44 85 109 94 81 14 -23 82 47 117 265 237 238 156 120 115 134 139 141 180 171
118 131 159 147 147 139 114 100 93 41 39 45 23 22 3 55 31 -0 57 75 112 116 101 101 98 105 70 113 75 52 -5 51 56 145 208 206 241 208 125 142 166 163 182 167
151 237 133 138 142 125 100 85 98 58 42 -7 24 -12 46 74 31 57 99 112 123 131 124 91 36 46 44 84 92 62 66 2 37 73 160 160 186 215 158 134 136 175 137 178
208 158 145 131 140 125 106 100 70 46 50 67 73 55 92 66 97 68 80 107 100 83 59 25 15 -17 25 51 153 135 63 82 41 96 181 135 197 268 221 142 128 151 116 142
252 155 163 160 162 107 145 70 44 35 32 50 64 18 103 125 93 91 81 59 55 29 2 -104 -59 38 28 51 68 98 84 103 43 64 163 161 138 254 262 86 102 97 127 126
231 165 142 180 130 98 73 43 36 41 41 21 118 49 19 152 96 103 59 36 54 -0 -46 -110 8 17 44 80 183 173 87 91 50 87 146 134 134 146 233 177 143 112 175 202
217 193 142 140 107 76 68 53 50 13 13 69 143 56 53 158 87 60 6 48 19 -30 -31 -53 19 -10 44 137 266 214 166 43 62 90 150 116 127 123 112 181 168 104 205 195
226 221 154 127 147 124 106 100 108 83 81 97 78 72 162 191 110 62 40 21 -16 -56 -60 -15 2 -22 31 194 318 336 311 63 58 107 135 109 111 163 183 167 261 102 172 219
254 313 169 159 117 92 102 92 101 84 56 61 93 51 63 188 71 40 14 -14 -38 -31 -75 -71 -19 62 21 205 309 391 458 247 91 128 111 86 98 146 175 165 100 114 86 144
217 292 138 137 100 107 113 101 52 47 73 75 85 43 145 77 53 26 8 -19 -59 -54 -37 -80 -25 111 120 233 376 403 375 343 241 242 116 94 84 116 117 116 111 119 117 133
183 229 174 157 106 106 113 90 72 80 80 98 82 127 160 89 42 17 13 -18 -58 -62 -51 -21 -9 128 181 246 437 462 485 506 425 402 314 243 146 115 108 149 145 129 163 133
169 222 213 140 135 124 109 91 79 68 103 78 91 55 207 116 72 49 29 -5 -43 -44 -35 18 10 91 223 319 676 569 554 574 518 369 432 399 390 336 289 185 141 167 172 189
124 221 289 190 151 129 82 83 85 103 121 76 98 102 67 87 45 33 8 -13 -26 -37 -7 11 18 106 219 431 734 743 638 636 597 504 402 509 499 435 398 398 371 245 264 277
134 178 242 210 211 127 109 92 92 115 122 68 78 76 42 72 15 12 8 -21 -26 -32 -24 -4 -25 102 223 300 685 773 642 554 505 422 399 437 561 576 507 445 458 569 323 226
152 244 139 101 106 90 69 72 84 109 75 140 68 72 78 64 18 2 -6 -45 -33 -39 -18 6 -38 64 172 191 498 510 567 495 416 306 319 400 316 428 415 410 323 275 318 255
172 219 82 100 71 50 32 27 59 52 41 40 52 46 184 45 44 19 1 -16 -25 -21 -39 -29 -40 -9 113 125 346 521 530 553 324 345 398 488 263 434 436 369 391 251 292 232
167 131 106 136 87 90 60 -3 59 107 70 73 106 115 57 21 26 20 15 -36 -32 -34 -37 -24 -22 -29 54 128 122 73 232 247 264 169 203 459 527 165 340 289 371 494 397 238
111 54 91 125 100 104 110 104 81 63 47 63 59 63 64 31 24 80 35 -44 -53 -27 -12 1 -0 -11 8 35 75 60 22 26 36 65 140 182 196 216 263 277 287 250 169 183
66 81 119 123 58 110 82 65 82 79 98 69 54 45 55 28 17 120 22 -9 -34 -20 -12 -9 -10 -5 5 52 74 68 57 49 103 151 147 147 178 180 174 207 248 302 277 238
108 110 97 87 104 80 133 99 67 71 118 81 61 47 43 19 38 49 17 6 -9 -19 -18 -2 4 4 6 47 51 41 47 54 67 116 143 130 125 122 138 159 178 175 144 119
153 105 69 83 83 104 93 92 52 103 179 76 62 42 34 21 7 28 -11 -4 -1 -10 -8 -6 -6 8 12 35 51 36 35 64 74 74 85 103 124 124 128 121 139 155 161 161
140 110 100 79 74 81 108 108 110 152 85 78 69 58 42 36 31 30 -8 -7 -3 -6 -0 -1 -8 1 8 24 48 37 34 38 37 34 48 59 100 119 140 152 137 132 132 134
81 126 104 86 120 142 89 116 113 98 88 80 80 73 58 40 33 35 5 -0 3 -3 -10 -2 5 3 9 9 30 44 46 33 27 18 33 42 57 96 123 153 180 172 178 163
113 115 95 93 108 122 115 104 90 85 87 86 80 73 54 39 34 20 4 5 6 4 4 -8 10 16 16 10 23 39 50 53 29 28 18 21 32 43 81 96 118 160 190 155
105 89 107 133 110 113 88 76 89 104 91 92 72 65 55 37 26 10 3 7 3 6 8 7 -1 17 25 19 21 33 47 47 37 32 30 28 24 27 24 42 73 76 115 156
67 103 110 115 165 101 149 107 106 100 97 89 70 57 46 33 25 3 -1 5 10 9 20 15 13 12 35 37 26 33 39 49 50 41 36 27 24 29 24 21 18 57 81 138